Flag for Greece Weather past 2 weeks in Piraeus, Greece

Now
54 °F

Clear.


Feels Like: 53 °F
Forecast: 60 / 74 °F
Wind: 5 mph from Northwest

Location: Elefsis Airport

Current Time: Apr 28, 2015 at 4:35:29 AM

Latest Report: Apr 28, 2015 at 3:50 AM


Visibility: 10 mi

Pressure: 29.89 "Hg

Humidity: 67%

Dew point: 43 °F

Location of PiraeusLocation

Historic Weather in Piraeus — Graph

°F

Piraeus temperature yesterday

Maximum temperature yesterday: 73 °F (at 12:50 PM)
Minimum temperature yesterday: 50 °F (at 5:20 AM)
Average temperature yesterday: 62 °F

Past Weeks' High & Low Weather Summary

 TemperatureHumidityPressure
High77 °F (Apr 17, 1:20 PM)88% (Apr 16, 11:20 PM)30.27 "Hg (Apr 16, 11:20 PM)
Low43 °F (Apr 22, 3:50 AM)20% (Apr 13, 4:50 PM)29.83 "Hg (Apr 19, 4:50 AM)
Average60 °F59%30.06 "Hg
* Reported Apr 13 2:20 AM — Apr 28 2:50 AM, Piraeus, Weather by CustomWeather, © 2015

Note: Actual official high and low records may vary slightly from our data, if they occured in-between our weather recording intervals... More about our weather records

Advertising

Piraeus weather history for previous 24 hours

 ConditionsComfort  
Time TempWeatherWind HumidityBarometerVisibility
2:50 AM
Tue, Apr 28
54 °FClear.5 mph67%29.89 "Hg10 mi
2:20 AM55 °FClear.5 mph63%29.95 "Hg10 mi
1:50 AM55 °FClear.5 mph63%29.95 "Hg10 mi
1:20 AM55 °FClear.5 mph63%29.95 "Hg10 mi
12:50 AM55 °FClear.5 mph63%29.95 "Hg10 mi
11:50 PM
Mon, Apr 27
55 °FClear.2 mph67%29.95 "Hg10 mi
11:20 PM57 °FClear.5 mph67%29.95 "Hg10 mi
10:50 PM57 °FClear.5 mph67%29.95 "Hg10 mi
10:20 PM57 °FClear.5 mph72%29.95 "Hg10 mi
9:50 PM57 °FClear.2 mph72%29.95 "Hg10 mi
9:20 PM61 °FClear.No wind63%29.95 "Hg10 mi
8:50 PM63 °FSunny.No wind59%29.95 "Hg10 mi
8:20 PM63 °FSunny.No wind59%29.95 "Hg10 mi
7:50 PM64 °FSunny.5 mph60%29.95 "Hg10 mi
7:20 PM68 °FSunny.7 mph49%29.95 "Hg10 mi
6:50 PM68 °FSunny.5 mph53%29.95 "Hg10 mi
5:50 PM68 °FSunny.7 mph49%29.95 "Hg10 mi
5:20 PM68 °FSunny.7 mph46%29.95 "Hg10 mi
4:50 PM70 °FSunny.7 mph46%29.95 "Hg10 mi
4:20 PM72 °FPassing clouds.9 mph44%29.95 "HgN/A
3:50 PM72 °FPassing clouds.12 mph44%29.95 "HgN/A
3:20 PM73 °FPassing clouds.12 mph41%29.95 "HgN/A
2:50 PM73 °FPassing clouds.9 mph41%29.95 "HgN/A
2:20 PM73 °FPassing clouds.8 mph44%29.98 "HgN/A
1:50 PM73 °FPassing clouds.7 mph44%29.98 "HgN/A
1:20 PM73 °FPassing clouds.6 mph47%29.98 "HgN/A
12:50 PM73 °FPassing clouds.No wind47%29.98 "HgN/A
12:20 PM72 °FPassing clouds.6 mph50%29.98 "HgN/A
11:50 AM72 °FPassing clouds.No wind47%29.98 "HgN/A
11:20 AM70 °FSunny.No wind50%30.01 "Hg10 mi
10:50 AM68 °FSunny.No wind53%30.01 "Hg10 mi
10:20 AM68 °FSunny.No wind53%29.98 "Hg10 mi
9:50 AM66 °FSunny.No wind56%29.98 "Hg10 mi
9:20 AM66 °FSunny.No wind56%29.98 "Hg10 mi
8:50 AM63 °FSunny.No wind59%29.98 "Hg10 mi
8:20 AM59 °FSunny.No wind72%29.98 "Hg10 mi
7:50 AM55 °FSunny.No wind82%29.98 "Hg10 mi
7:20 AM52 °FClear.5 mph88%29.98 "Hg10 mi
6:50 AM50 °FClear.5 mph88%29.98 "Hg10 mi
6:20 AM50 °FPassing clouds.3 mph88%29.98 "HgN/A
5:50 AM52 °FPassing clouds.5 mph88%29.98 "HgN/A
5:20 AM50 °FPassing clouds.5 mph88%29.98 "HgN/A
4:50 AM52 °FPassing clouds.3 mph88%29.98 "HgN/A
4:20 AM52 °FPassing clouds.3 mph88%29.98 "HgN/A
Weather by CustomWeather, © 2015

See weather overviewHow to use our weather pages